Location: Leuk
(46.3174°N, 7.6341°E)
Time: 20:12:41
(UTC+00:00)

S3M - Pass Details

Date: 09 March 2021
Orbit: 950 x 1003 km, 83.0° (Epoch: 21 April)

Event Time Altitude Azimuth Distance (km) Brightness Sun altitude
Exits shadow 03:21:14 68° 228° (SW) 1,031 3.8 -26.6°
Maximum altitude 03:21:55 76° 279° (W) 992 3.8 -26.5°
Drops below altitude 10° 03:28:09 10° 6° (N) 2,719 6.6 -25.5°
Sets 03:30:41 0° 8° (N) 3,678 7.4 -25.1°
